星链-32103 (STARLINK-32103 )

导读

STARLINK-32103是美国太空探索技术公司(SpaceX)星链互联网卫星星座中的一员,于2024年5月8日发射入轨。星链项目旨在通过近地轨道卫星群,为全球提供高速互联网接入服务。该卫星加入星座后,进一步扩展了星链网络的覆盖范围与服务能力,推动全球互联基础设施建设。

Basic Information
目录编号:
59688
目录名称:
STARLINK-32103
国际标识:
2024-086G
轨道中心:
EARTH
卫星名称:
星链-32103
卫星全名:
星链-32103 (STARLINK-32103 )
卫星状态:
在轨 (已飞行771 天)
发射日期:
2024-05-08 UTC
国别 :
美国 (US)
星等 :
--
Orbit Information
数据来源 国际轨道数据 AOE轨道数据
星历时间 2026-06-17T03:28:31+0800
1天前
查看轨道信息
2026-06-16T06:00:00+0800
2天前
查看轨道信息
半长轴 6861.21km 6861.184km
偏心率 0.0001338 0.000125
轨道倾角 43.001° 42.997°
近地点辐角 269.813° 249.452°
升交点赤经 209.545° 214.600°
平近点角 90.257° 224.075°
近地点 482.154km 482.189km
远地点 483.992km 483.905km
周期 94.267分钟 94.267分钟
每日圈数 15.275722 15.275809
Detailed Information
固有亮度:
5
最大亮度:
1.5
卫星平台:
Starlink v2.0 mini
覆盖范围:
全球
运营商:
太空探索技术公司
运营商所在国:
美国
制造商(研发单位):
太空探索技术公司
制造商所在国:
美国
使用方式:
暂无
Satellite Introduction
星链(Starlink)计划是由太空探索技术公司(SpaceX)提出的一个巨型低轨卫星互联网星座项目,计划在2019年至2024年间在太空搭建由约1.2万颗卫星组成的“星链”网络,其中1584颗将部署在地球上空550千米处的近地轨道,并从2020年开始工作。该卫星仍在工作。
2D Orbit Map
3D Orbit Map
Orbit Altitude Analysis Chart
Orbit Inclination Analysis Chart
Orbit Comprehensive Analysis Chart
View Comprehensive Chart